Weather History for Danville, KY

Change the Weather History Date:

Thursday, July 4, 2013

  Actual Average (KLEX) Record (KLEX)
Temperature  
Mean Temperature 65 °F 76 °F  
Max Temperature 68 °F 86 °F 99 °F (2012)
Min Temperature 62 °F 66 °F 50 °F (1968)
Degree Days  
Heating Degree Days 0 0  
Month to date heating degree days 0  
Since 1 June heating degree days 11  
Since 1 July heating degree days 0  
Cooling Degree Days 0 11  
Month to date cooling degree days 44  
Year to date cooling degree days 393  
Since 1 June cooling degree days 286  
Growing Degree Days 15 (Base 50)    
Moisture  
Dew Point 64 °F    
Average Humidity 96    
Maximum Humidity 100    
Minimum Humidity 83    
Precipitation  
Precipitation 0.00 in 0.13 in 1.83 in (1935)
Month to date precipitation 0.54  
Year to date precipitation 24.31  
Snow  
Snow 0.00 in 0.00 in - ()
Month to date snowfall 0.0  
Since 1 June snowfall 0.0  
Since 1 July snowfall 0.0  
Snow Depth -    
Sea Level Pressure  
Sea Level Pressure 30.16 in    
Wind  
Wind Speed 4 mph (SSE)    
Max Wind Speed 9 mph    
Max Gust Speed -    
Visibility 8 miles    
Events Rain    
T = Trace of Precipitation, MM = Missing Value Source: NWS Daily Summary

Daily Weather History Graph

Daily Weather History Graph

Search for Another Location

Airport:

Trip Planner

Search our weather history database for the weather conditions in past years. The results will help you decide how hot, cold, wet, or windy it might be!

Date:

Astronomy

Jul. 04, 2013 Rise Set
Actual Time 6:23 AM EDT 9:03 PM EDT
Civil Twilight 5:52 AM EDT 9:34 PM EDT
Nautical Twilight 5:13 AM EDT 10:13 PM EDT
Astronomical Twilight 4:30 AM EDT 10:56 PM EDT
Moon 3:37 AM EDT (7/4) 6:08 PM EDT (7/4)
Length of Visible Light 15h 42m
Length of Day
14h 40m
Waning Crescent, 11% of the Moon is Illuminated
Jul 4
Waning Crescent
Jul 8
New
Jul 15
First Quarter
Jul 22
Full
Jul 29
Last Quarter

Hourly Weather History & Observations

Time (EDT) Temp. Dew Point Humidity Pressure Visibility Wind Dir Wind Speed Gust Speed Precip Events Conditions
12:15 AM 68.0 °F 62.6 °F 83% 30.16 in 10.0 mi South 5.8 mph - N/A   Clear
12:35 AM 68.0 °F 62.6 °F 83% 30.16 in 10.0 mi South 4.6 mph - N/A   Clear
12:55 AM 68.0 °F 62.6 °F 83% 30.16 in 10.0 mi South 6.9 mph - N/A   Scattered Clouds
1:15 AM 68.0 °F 62.6 °F 83% 30.16 in 10.0 mi South 8.1 mph - N/A   Scattered Clouds
1:35 AM 68.0 °F 62.6 °F 83% 30.16 in 10.0 mi South 6.9 mph - N/A   Scattered Clouds
1:55 AM 66.2 °F 62.6 °F 88% 30.16 in 10.0 mi South 4.6 mph - N/A   Mostly Cloudy
2:15 AM 66.2 °F 62.6 °F 88% 30.16 in 10.0 mi South 5.8 mph - N/A   Scattered Clouds
2:35 AM 66.2 °F 62.6 °F 88% 30.16 in 10.0 mi South 5.8 mph - N/A   Scattered Clouds
2:55 AM 66.2 °F 62.6 °F 88% 30.16 in 10.0 mi South 4.6 mph - N/A   Mostly Cloudy
3:15 AM 66.2 °F 62.6 °F 88% 30.16 in 10.0 mi SSW 3.5 mph - N/A   Overcast
3:35 AM 66.2 °F 62.6 °F 88% 30.16 in 10.0 mi SSE 4.6 mph - N/A   Overcast
3:55 AM 66.2 °F 62.6 °F 88% 30.16 in 10.0 mi SSE 4.6 mph - N/A   Overcast
4:15 AM 66.2 °F 62.6 °F 88% 30.16 in 10.0 mi SSE 4.6 mph - N/A   Overcast
4:35 AM 66.2 °F 62.6 °F 88% 30.16 in 10.0 mi SSE 3.5 mph - N/A   Mostly Cloudy
4:55 AM 64.4 °F 62.6 °F 94% 30.16 in 10.0 mi SSE 4.6 mph - N/A   Mostly Cloudy
5:15 AM 64.4 °F 62.6 °F 94% 30.16 in 10.0 mi SSE 4.6 mph - N/A   Mostly Cloudy
5:35 AM 64.4 °F 62.6 °F 94% 30.16 in 10.0 mi Calm Calm - N/A   Overcast
5:55 AM 64.4 °F 62.6 °F 94% 30.17 in 10.0 mi South 5.8 mph - N/A   Overcast
6:15 AM 64.4 °F 62.6 °F 94% 30.17 in 7.0 mi SSE 3.5 mph - N/A Rain Rain
6:35 AM 64.4 °F 62.6 °F 94% 30.17 in 10.0 mi Calm Calm - N/A Rain Light Rain
6:55 AM 64.4 °F 64.4 °F 100% 30.17 in 7.0 mi Calm Calm - N/A Rain Rain
7:15 AM 64.4 °F 64.4 °F 100% 30.17 in 10.0 mi Calm Calm - N/A Rain Light Rain
7:35 AM 64.4 °F 64.4 °F 100% 30.17 in 10.0 mi Calm Calm - N/A Rain Rain
7:55 AM 64.4 °F 64.4 °F 100% 30.17 in 10.0 mi Calm Calm - N/A   Overcast
8:15 AM 64.4 °F 64.4 °F 100% 30.17 in 10.0 mi Calm Calm - N/A Rain Light Rain
8:35 AM 64.4 °F 64.4 °F 100% 30.18 in 5.0 mi SSE 3.5 mph - N/A   Heavy Drizzle
8:55 AM 66.2 °F 64.4 °F 94% 30.18 in 5.0 mi SE 3.5 mph - N/A   Drizzle
9:15 AM 66.2 °F 64.4 °F 94% 30.18 in 10.0 mi Calm Calm - N/A   Drizzle
9:35 AM 66.2 °F 64.4 °F 94% 30.19 in 1.8 mi SSE 3.5 mph - N/A Rain Heavy Rain
9:55 AM 66.2 °F 64.4 °F 94% 30.18 in 1.8 mi SSE 3.5 mph - N/A Rain Rain
10:15 AM 66.2 °F 66.2 °F 100% 30.18 in 7.0 mi ESE 3.5 mph - N/A Rain Light Rain
10:35 AM 68.0 °F 66.2 °F 94% 30.17 in 5.0 mi SE 4.6 mph - N/A Rain Rain
10:55 AM 68.0 °F 68.0 °F 100% 30.17 in 10.0 mi SE 4.6 mph - N/A Rain Light Rain
11:15 AM 68.0 °F 68.0 °F 100% 30.17 in 5.0 mi SE 5.8 mph - N/A Rain Rain
11:35 AM 68.0 °F 68.0 °F 100% 30.17 in 5.0 mi SSE 3.5 mph - N/A Rain Rain
11:55 AM 68.0 °F 68.0 °F 100% 30.17 in 10.0 mi SSE 8.1 mph - N/A Rain Light Rain
12:15 PM 68.0 °F 68.0 °F 100% 30.17 in 10.0 mi SSE 6.9 mph - N/A Rain Light Rain
12:35 PM 68.0 °F 68.0 °F 100% 30.17 in 7.0 mi SSE 9.2 mph - N/A Rain Rain
12:55 PM 68.0 °F 66.2 °F 94% 30.18 in 2.0 mi SSE 9.2 mph - N/A Rain Heavy Rain
1:15 PM 66.2 °F 66.2 °F 100% 30.18 in 1.5 mi Calm Calm - N/A Rain Heavy Rain
1:35 PM 68.0 °F 68.0 °F 100% 30.18 in 7.0 mi South 3.5 mph - N/A Rain Rain
1:55 PM 68.0 °F 68.0 °F 100% 30.17 in 7.0 mi SSE 4.6 mph - N/A Rain Rain
2:15 PM 68.0 °F 68.0 °F 100% 30.17 in 10.0 mi Calm Calm - N/A Rain Rain
2:35 PM 68.0 °F 68.0 °F 100% 30.17 in 1.2 mi SSE 4.6 mph - N/A Rain Heavy Rain
2:55 PM 68.0 °F 68.0 °F 100% 30.17 in 2.5 mi South 4.6 mph - N/A Rain Heavy Rain
3:15 PM 68.0 °F 68.0 °F 100% 30.17 in 7.0 mi SW 4.6 mph - N/A Rain Heavy Rain
3:35 PM 68.0 °F 68.0 °F 100% 30.16 in 7.0 mi Calm Calm - N/A Rain Light Rain
3:55 PM 68.0 °F 68.0 °F 100% 30.15 in 10.0 mi WNW 3.5 mph - N/A   Drizzle
4:15 PM 68.0 °F 64.4 °F 88% 30.15 in 10.0 mi WNW 6.9 mph - N/A Rain Light Rain
4:35 PM 66.2 °F 64.4 °F 94% 30.13 in 10.0 mi WNW 3.5 mph - N/A Rain Heavy Rain
4:55 PM 64.4 °F 64.4 °F 100% 30.14 in 3.0 mi WNW 4.6 mph - N/A Rain Rain
5:15 PM 64.4 °F 62.6 °F 94% 30.15 in 7.0 mi NNW 5.8 mph - N/A Rain Rain
5:35 PM 64.4 °F 62.6 °F 94% 30.13 in 10.0 mi North 6.9 mph - N/A Rain Light Rain
5:55 PM 64.4 °F 62.6 °F 94% 30.13 in 10.0 mi NE 4.6 mph - N/A   Light Drizzle
6:15 PM 64.4 °F 64.4 °F 100% 30.13 in 10.0 mi East 4.6 mph - N/A Rain Rain
6:35 PM 64.4 °F 64.4 °F 100% 30.13 in 10.0 mi Calm Calm - N/A Rain Rain
6:55 PM 64.4 °F 64.4 °F 100% 30.13 in 5.0 mi Calm Calm - N/A Rain Heavy Rain
7:15 PM 64.4 °F 64.4 °F 100% 30.14 in 5.0 mi Calm Calm - N/A Rain Heavy Rain
7:35 PM 64.4 °F 64.4 °F 100% 30.15 in 3.0 mi West 4.6 mph - N/A Rain Heavy Rain
7:55 PM 64.4 °F 62.6 °F 94% 30.16 in 1.0 mi Calm Calm - N/A Rain Heavy Rain
8:15 PM 62.6 °F 62.6 °F 100% 30.16 in 2.5 mi SSE 3.5 mph - N/A Rain Rain
8:35 PM 62.6 °F 62.6 °F 100% 30.13 in 3.0 mi Calm Calm - N/A Rain Rain
8:55 PM 62.6 °F 62.6 °F 100% 30.14 in 10.0 mi Calm Calm - N/A Rain Light Rain
9:15 PM 62.6 °F 62.6 °F 100% 30.14 in 10.0 mi South 3.5 mph - N/A Rain Light Rain
9:35 PM 62.6 °F 62.6 °F 100% 30.13 in 10.0 mi SSE 4.6 mph - N/A Rain Rain
9:55 PM 62.6 °F 62.6 °F 100% 30.13 in 10.0 mi SSE 5.8 mph - N/A   Light Drizzle
10:15 PM 62.6 °F 62.6 °F 100% 30.13 in 10.0 mi SE 5.8 mph - N/A   Mostly Cloudy
10:35 PM 62.6 °F 62.6 °F 100% 30.12 in 10.0 mi SSE 5.8 mph - N/A   Mostly Cloudy
10:55 PM 62.6 °F 62.6 °F 100% 30.13 in 10.0 mi SSE 3.5 mph - N/A   Mostly Cloudy
11:15 PM 62.6 °F 62.6 °F 100% 30.13 in 10.0 mi South 4.6 mph - N/A Rain Light Rain
11:35 PM 62.6 °F 62.6 °F 100% 30.13 in 10.0 mi SSE 5.8 mph - N/A   Drizzle
11:55 PM 62.6 °F 62.6 °F 100% 30.13 in 10.0 mi SSE 4.6 mph - N/A   Overcast